Waarnemingen

Advertentie
Mijn weer
St. Mary's, Groot Brittannië (3803): temperatuur & dauwpunt: 13.10.2017 08:00:00 - 19.10.2017 08:00:00 (BST)St. Mary's, Groot Brittannië (3803): temperatuur -20cm: 13.10.2017 08:00:00 - 19.10.2017 08:00:00 (BST)St. Mary's, Groot Brittannië (3803): windsnelheid & windstoten: 13.10.2017 08:00:00 - 19.10.2017 08:00:00 (BST)St. Mary's, Groot Brittannië (3803): windrichting: 13.10.2017 08:00:00 - 19.10.2017 08:00:00 (BST)St. Mary's, Groot Brittannië (3803): luchtdruk: 13.10.2017 08:00:00 - 19.10.2017 08:00:00 (BST)St. Mary's, Groot Brittannië (3803): zicht: 13.10.2017 08:00:00 - 19.10.2017 08:00:00 (BST)St. Mary's, Groot Brittannië (3803): neerslag: 13.10.2017 08:00:00 - 19.10.2017 08:00:00 (BST)
Datum & Tijd tt [°C] td [°C] tt -20cm [°C] ff [km/u] ff [kn] fx [km/u] fx [kn] dd ppp [hPa] vv [km] rr [mm]
19.10.2017 08:00:00 14,1 13,7 - 39 21 46 25 Z 1000,7 10 -
19.10.2017 07:00:00 14,1 13,7 - 34 18 - - Z 1001,5 10 0,0
19.10.2017 06:00:00 14,1 13,7 - 35 19 - - Z 1002,1 12 0,0
19.10.2017 05:00:00 14,1 13,7 - 34 18 - - Z 1002,9 10 0,0
19.10.2017 04:00:00 14,2 13,8 - 37 20 46 25 Z 1004,1 11 0,0
19.10.2017 03:00:00 14,1 13,7 - 34 18 - - Z 1004,6 12 0,0
19.10.2017 02:00:00 14,1 13,7 - 34 18 - - Z 1005,7 13 0,0
19.10.2017 01:00:00 14,0 13,5 - 31 17 - - Z 1006,4 15 0,0
19.10.2017 00:00:00 14,0 13,6 - 29 16 - - Z 1006,6 16 0,0
18.10.2017 23:00:00 13,9 13,6 - 28 15 - - Z 1007,0 13 0,0
18.10.2017 22:00:00 14,1 13,9 - 22 12 - - Z 1007,4 8 0,0
18.10.2017 21:00:00 13,9 13,7 - 22 12 - - Z 1007,8 9 0,0
18.10.2017 20:00:00 14,0 13,7 - 22 12 - - Z 1008,0 9 0,0
18.10.2017 19:00:00 14,0 13,6 - 21 11 - - Z 1007,9 11 0,0
18.10.2017 18:00:00 14,5 13,5 - 21 11 - - Z 1007,8 10 0,0
18.10.2017 17:00:00 15,4 14,0 - 22 12 - - Z 1007,8 10 0,0
18.10.2017 16:00:00 15,6 14,5 - 24 13 - - Z 1008,0 10 0,0
18.10.2017 15:00:00 15,3 14,1 - 22 12 - - Z 1008,2 10 0,0
18.10.2017 14:00:00 15,9 14,6 - 28 15 - - Z 1008,4 10 0,0
18.10.2017 13:00:00 15,7 14,5 - 26 14 - - ZZO 1008,6 10 0,0
18.10.2017 12:00:00 15,3 14,5 - 26 14 - - ZZO 1008,8 10 0,0
18.10.2017 11:00:00 15,2 14,2 - 26 14 - - ZZO 1008,8 10 0,0
18.10.2017 10:00:00 14,3 13,6 14,2 21 11 - - ZZO 1009,1 10 0,0
18.10.2017 09:00:00 13,9 13,3 - 22 12 - - ZO 1009,1 10 0,0
18.10.2017 08:00:00 13,7 13,1 - 24 13 - - OZO 1008,7 9 0,0
18.10.2017 07:00:00 13,5 13,1 - 28 15 - - ZO 1008,9 8 0,0
18.10.2017 06:00:00 13,4 13,0 - 29 16 - - OZO 1009,2 7 0,0
18.10.2017 05:00:00 13,4 12,8 - 31 17 - - OZO 1009,6 8 0,0
18.10.2017 04:00:00 12,9 12,4 - 37 20 48 26 O 1010,1 12 0,0
18.10.2017 03:00:00 12,6 12,3 - 34 18 - - O 1010,9 4,7 0,4
18.10.2017 02:00:00 12,1 11,6 - 29 16 - - O 1011,6 7 0,2
18.10.2017 01:00:00 12,2 11,4 - 28 15 - - O 1012,2 15 0,0
18.10.2017 00:00:00 12,8 10,8 - 31 17 - - O 1012,7 25 0,0
17.10.2017 23:00:00 12,6 10,5 - 35 19 46 25 O 1013,7 28 0,0
17.10.2017 22:00:00 12,6 9,6 - 37 20 - - O 1014,1 45 0,0
17.10.2017 21:00:00 12,4 9,6 - 31 17 - - O 1014,7 30 0,0
17.10.2017 20:00:00 12,1 10,0 - 29 16 - - OZO 1015,1 29 0,0
17.10.2017 19:00:00 12,3 9,9 - 26 14 - - OZO 1015,3 25 0,0
17.10.2017 18:00:00 13,2 7,8 - 24 13 - - O 1015,3 10 0,0
17.10.2017 17:00:00 13,3 6,6 - 22 12 - - OZO 1015,8 10 0,0
17.10.2017 16:00:00 13,7 9,1 - 21 11 - - ZO 1016,6 10 0,0
17.10.2017 15:00:00 13,8 10,2 - 18 10 - - ZZO 1017,2 10 0,0
17.10.2017 14:00:00 14,2 11,8 - 15 8 - - ZO 1018,0 10 0,0
17.10.2017 13:00:00 14,2 10,9 - 9 5 - - OZO 1018,8 10 0,0
17.10.2017 12:00:00 14,5 11,0 - 9 5 - - ZO 1019,4 10 0,0
17.10.2017 11:00:00 14,4 11,3 - 11 6 - - ZZO 1019,6 10 0,0
17.10.2017 10:00:00 14,5 11,1 14,2 5 3 - - ZZO 1019,4 10 0,0
17.10.2017 09:00:00 13,1 10,8 - 9 5 - - Z 1019,4 10 0,0
17.10.2017 08:00:00 13,0 10,5 - 13 7 - - ZZW 1019,2 10 0,0
17.10.2017 07:00:00 13,2 10,1 - 15 8 - - ZW 1019,3 13 0,0
17.10.2017 06:00:00 12,8 9,7 - 18 10 - - ZW 1018,8 14 0,0
17.10.2017 05:00:00 13,0 9,9 - 15 8 - - ZW 1018,7 9 0,0
17.10.2017 04:00:00 12,9 8,8 - 22 12 - - WZW 1019,2 12 0,0
17.10.2017 03:00:00 13,1 8,8 - 26 14 - - WZW 1019,8 14 0,0
17.10.2017 02:00:00 13,3 9,1 - 28 15 46 25 WZW 1019,6 13 0,0
17.10.2017 01:00:00 13,5 9,4 - 31 17 54 29 ZW 1019,5 12 0,0
17.10.2017 00:00:00 13,3 9,0 - 34 18 52 28 ZW 1019,5 11 0,0
16.10.2017 23:00:00 13,4 8,6 - 39 21 57 31 WZW 1018,9 13 0,0
16.10.2017 22:00:00 13,6 8,8 - 44 24 63 34 ZW 1018,3 13 0,0
16.10.2017 21:00:00 13,8 9,1 - 46 25 70 38 WZW 1017,2 12 0,0
16.10.2017 20:00:00 14,0 9,5 - 44 24 76 41 WZW 1016,3 10 0,0
16.10.2017 19:00:00 13,9 9,0 - 59 32 85 46 ZW 1015,0 9 0,0
16.10.2017 18:00:00 14,3 8,7 - 63 34 89 48 WZW 1013,8 7 0,0
16.10.2017 17:00:00 14,5 8,9 - 67 36 98 53 ZW 1012,9 8 0,0
16.10.2017 16:00:00 14,5 9,5 - 67 36 106 57 ZW 1011,6 8 0,0
16.10.2017 15:00:00 15,2 10,0 - 70 38 109 59 ZW 1010,1 8 0,0
16.10.2017 14:00:00 15,5 9,4 - 80 43 117 63 ZW 1009,1 6 0,0
16.10.2017 13:00:00 15,6 9,5 - 78 42 107 58 ZZW 1008,2 7 0,0
16.10.2017 12:00:00 15,5 10,5 - 85 46 113 61 ZZW 1007,4 7 0,0
16.10.2017 11:00:00 15,5 10,2 - 81 44 113 61 ZZW 1006,3 7 0,0
16.10.2017 10:00:00 15,3 10,7 15,2 81 44 107 58 ZZW 1005,7 7 0,0
16.10.2017 09:00:00 15,5 11,1 - 81 44 102 55 ZZW 1004,6 6 0,0
16.10.2017 08:00:00 16,6 12,5 - 83 45 107 58 ZZW 1003,7 6 0,0
16.10.2017 07:00:00 17,4 15,1 - 63 34 80 43 Z 1003,2 6 0,0
16.10.2017 06:00:00 17,4 14,2 - 65 35 83 45 ZZO 1003,6 7 0,0
16.10.2017 05:00:00 17,8 13,3 - 59 32 76 41 ZZO 1003,7 9 0,0
16.10.2017 04:00:00 18,0 13,6 - 54 29 72 39 ZZO 1004,6 8 0,0
16.10.2017 03:00:00 17,4 14,0 - 57 31 68 37 ZZO 1006,4 8 0,0
16.10.2017 02:00:00 15,8 14,3 - 39 21 52 28 OZO 1008,3 8 0,0
16.10.2017 01:00:00 15,2 14,9 - 29 16 - - ZO 1010,1 6 0,0
16.10.2017 00:00:00 15,2 15,2 - 26 14 - - ZO 1011,6 2,6 0,0
15.10.2017 23:00:00 15,1 15,1 - 18 10 - - ZZO 1012,0 0,1 0,0
15.10.2017 22:00:00 15,2 15,2 - 28 15 - - Z 1012,5 0,1 0,0
15.10.2017 21:00:00 14,5 14,5 - 18 10 - - Z 1012,9 0,1 0,0
15.10.2017 20:00:00 15,0 15,0 - 22 12 - - Z 1012,9 0,1 0,0
15.10.2017 19:00:00 14,9 14,8 - 18 10 - - Z 1012,7 0,4 0,0
15.10.2017 18:00:00 15,0 14,8 - 18 10 - - Z 1012,7 0,5 0,0
15.10.2017 17:00:00 15,2 14,8 - 21 11 - - ZZO 1012,9 2,4 0,0
15.10.2017 16:00:00 15,3 14,8 - 26 14 - - ZZO 1013,2 3,5 0,0
15.10.2017 15:00:00 15,2 14,9 - 21 11 - - Z 1013,8 2,0 0,0
15.10.2017 14:00:00 15,7 15,0 - 26 14 - - Z 1014,2 5 0,0
15.10.2017 13:00:00 16,5 15,5 - 26 14 - - Z 1014,6 8 0,0
15.10.2017 12:00:00 16,1 14,5 - 26 14 - - Z 1014,9 9 0,0
15.10.2017 11:00:00 16,0 14,3 - 28 15 - - Z 1014,9 10 0,0
15.10.2017 10:00:00 15,3 13,7 15,0 26 14 - - Z 1015,4 16 0,0
15.10.2017 09:00:00 15,0 13,5 - 28 15 - - Z 1015,4 13 0,0
15.10.2017 08:00:00 14,9 13,2 - 28 15 - - Z 1015,4 15 0,0
15.10.2017 07:00:00 14,8 13,0 - 28 15 - - Z 1015,8 13 0,0
15.10.2017 06:00:00 14,8 13,1 - 26 14 - - ZZW 1015,9 12 0,0
15.10.2017 05:00:00 14,8 13,2 - 28 15 - - Z 1016,0 11 0,0
15.10.2017 04:00:00 14,8 12,8 - 26 14 - - Z 1016,2 17 0,0
15.10.2017 03:00:00 15,0 12,5 - 29 16 - - ZZW 1016,7 28 0,0
15.10.2017 02:00:00 14,9 12,6 - 24 13 - - ZZW 1017,3 21 0,0
15.10.2017 01:00:00 14,4 13,7 - 24 13 - - Z 1017,9 7 0,0
15.10.2017 00:00:00 14,4 13,4 - 24 13 - - Z 1018,1 10 0,0
14.10.2017 23:00:00 14,5 13,5 - 26 14 - - Z 1018,3 10 0,0
14.10.2017 22:00:00 14,3 13,7 - 22 12 - - ZZO 1018,5 11 0,0
14.10.2017 21:00:00 14,2 13,6 - 18 10 - - ZZO 1019,3 14 0,0
14.10.2017 20:00:00 14,3 13,6 - 16 9 - - ZZO 1020,0 13 0,0
14.10.2017 19:00:00 14,3 13,6 - 16 9 - - Z 1020,5 12 0,0
14.10.2017 18:00:00 14,4 13,5 - 24 13 - - Z 1020,5 10 0,0
14.10.2017 17:00:00 15,2 14,3 - 24 13 - - ZZO 1020,8 10 0,0
14.10.2017 16:00:00 15,1 14,5 - 28 15 - - ZZO 1021,5 10 0,0
14.10.2017 15:00:00 14,9 14,0 - 21 11 - - ZZO 1022,5 10 0,0
14.10.2017 14:00:00 14,7 14,0 - 28 15 - - Z 1023,1 10 0,0
14.10.2017 13:00:00 15,0 14,3 - 22 12 - - Z 1023,6 9 0,0
14.10.2017 12:00:00 15,3 14,2 - 22 12 - - Z 1024,0 10 0,0
14.10.2017 11:00:00 15,2 14,2 - 18 10 - - Z 1023,7 10 0,0
14.10.2017 10:00:00 15,4 14,1 15,2 21 11 - - ZZW 1023,8 10 0,0
14.10.2017 09:00:00 15,1 14,1 - 18 10 - - Z 1023,3 10 0,0
14.10.2017 08:00:00 15,1 14,4 - 26 14 - - Z 1022,9 10 0,0
14.10.2017 07:00:00 15,3 14,3 - 26 14 - - Z 1022,7 14 0,0
14.10.2017 06:00:00 15,4 14,5 - 28 15 - - ZZW 1022,7 16 0,0
14.10.2017 05:00:00 15,6 14,7 - 24 13 - - ZZW 1022,8 14 0,0
14.10.2017 04:00:00 15,3 14,9 - 21 11 - - ZZW 1022,9 9 0,0
14.10.2017 03:00:00 15,6 15,1 - 28 15 - - ZZW 1022,9 10 0,0
14.10.2017 02:00:00 15,7 15,2 - 34 18 - - ZZW 1023,0 11 0,0
14.10.2017 01:00:00 15,5 15,2 - 28 15 - - ZZW 1022,9 7 0,0
14.10.2017 00:00:00 15,4 15,1 - 28 15 - - ZZW 1022,7 7 0,0
13.10.2017 23:00:00 15,4 15,1 - 29 16 - - ZZW 1022,5 8 0,0
13.10.2017 22:00:00 15,4 15,0 - 26 14 - - ZZW 1022,5 7 0,0
13.10.2017 21:00:00 15,5 15,2 - 28 15 - - ZZW 1022,5 8 0,0
13.10.2017 20:00:00 15,5 15,1 - 26 14 - - ZZW 1022,5 7 0,0
13.10.2017 19:00:00 15,6 15,2 - 28 15 - - ZZW 1022,0 10 0,0
13.10.2017 18:00:00 15,8 15,2 - 28 15 - - ZZW 1021,7 8 0,0
13.10.2017 17:00:00 15,7 15,1 - 26 14 - - ZZW 1021,7 9 0,0
13.10.2017 16:00:00 15,7 15,1 - 28 15 - - ZZW 1021,6 9 0,0
13.10.2017 15:00:00 15,7 15,1 - 28 15 - - ZZW 1021,5 9 0,0
13.10.2017 14:00:00 15,9 15,1 - 28 15 - - ZZW 1021,5 9 0,0
13.10.2017 13:00:00 15,9 15,1 - 31 17 - - ZZW 1021,5 10 0,0
13.10.2017 12:00:00 15,9 15,3 - 35 19 46 25 ZZW 1021,5 10 0,0
13.10.2017 11:00:00 16,0 15,4 - 35 19 - - ZZW 1021,3 10 0,0
13.10.2017 10:00:00 15,7 15,4 15,0 31 17 46 25 ZZW 1021,0 10 0,0
13.10.2017 09:00:00 15,4 15,2 - 31 17 - - ZZW 1020,6 9 0,0
13.10.2017 08:00:00 15,4 15,3 - 35 19 46 25 ZZW 1020,2 8 0,0

tt = temperatuur
td = dauwpunt
tt -20cm = temperatuur -20cm
ff = windsnelheid
fx = windstoten
dd = windrichting
ppp = luchtdruk
vv = zicht
rr = neerslag

Weerstations in de omgeving